Total_Precipitation_Accumulation
0.00 0.00 0.00 0.00 0.00 0.00 0.00 0.00 0.00 0.00 0.00 0.00 0.01 0.03 0.03 0.04 0.04 0.09 0.14 0.12 0.13 0.20 0.35 0.53 0.75 1.04 1.29 1.08 0.88 0.80 0.73 0.71 0.75 0.86 0.90 0.96 1.16 1.33 1.47 1.63 1.67 1.65 1.56 1.52
0.00 0.00 0.00 0.00 0.00 0.00 0.00 0.00 0.01 0.01 0.01 0.01 0.01 0.02 0.04 0.06 0.05 0.09 0.13 0.16 0.18 0.24 0.46 0.71 0.97 1.34 1.56 1.51 1.38 1.30 1.19 1.17 1.28 1.41 1.62 1.91 2.16 2.40 2.59 2.60 2.39 2.21 2.11 2.04
0.00 0.00 0.00 0.00 0.00 0.00 0.00 0.00 0.01 0.04 0.03 0.02 0.02 0.06 0.08 0.09 0.08 0.11 0.18 0.27 0.44 0.50 0.75 0.99 1.20 1.50 1.71 1.71 1.59 1.49 1.52 1.60 1.83 2.10 2.38 2.72 2.97 3.15 3.16 3.04 2.88 2.75 2.65 2.54
0.00 0.00 0.00 0.00 0.00 0.00 0.00 0.00 0.00 0.01 0.02 0.02 0.02 0.09 0.20 0.14 0.11 0.19 0.27 0.26 0.39 0.57 0.84 1.09 1.32 1.53 1.71 1.73 1.66 1.69 1.82 2.12 2.34 2.67 3.05 3.45 3.72 3.77 3.71 3.52 3.32 3.12 2.85 2.55
0.00 0.00 0.00 0.00 0.00 0.00 0.00 0.00 0.00 0.01 0.01 0.01 0.01 0.07 0.27 0.26 0.20 0.25 0.38 0.32 0.33 0.38 0.61 0.90 1.13 1.31 1.53 1.58 1.65 1.85 2.08 2.47 2.89 3.37 3.88 4.14 4.13 4.01 3.84 3.49 3.16 2.85 2.55 2.28
0.00 0.00 0.00 0.00 0.00 0.00 0.00 0.00 0.00 0.00 0.00 0.00 0.01 0.06 0.30 0.45 0.41 0.37 0.34 0.32 0.32 0.34 0.40 0.53 0.69 0.92 1.12 1.36 1.60 1.89 2.30 2.74 3.10 3.46 3.82 3.86 3.74 3.66 3.39 2.96 2.54 2.33 2.15 1.87
0.01 0.01 0.00 0.00 0.00 0.00 0.00 0.00 0.00 0.00 0.00 0.01 0.02 0.11 0.36 0.57 0.62 0.44 0.33 0.28 0.25 0.29 0.32 0.38 0.47 0.71 0.96 1.17 1.43 1.77 2.07 2.39 2.59 2.79 3.00 3.08 3.01 2.89 2.74 2.43 2.12 1.84 1.52 1.22
0.08 0.04 0.01 0.00 0.00 0.00 0.00 0.00 0.00 0.00 0.00 0.02 0.07 0.21 0.39 0.44 0.44 0.32 0.25 0.21 0.21 0.26 0.31 0.38 0.49 0.63 0.86 1.07 1.27 1.42 1.62 1.86 1.90 1.85 1.95 2.04 1.98 1.93 1.83 1.65 1.48 1.28 1.04 0.80
0.15 0.08 0.02 0.00 0.00 0.00 0.00 0.00 0.00 0.00 0.01 0.06 0.21 0.36 0.47 0.41 0.29 0.24 0.22 0.20 0.23 0.28 0.33 0.40 0.48 0.57 0.67 0.80 0.90 0.96 1.03 1.16 1.18 1.17 1.16 1.19 1.18 1.17 1.10 0.96 0.81 0.68 0.55 0.43
0.12 0.09 0.03 0.00 0.00 0.00 0.00 0.01 0.01 0.01 0.03 0.11 0.27 0.43 0.54 0.60 0.42 0.28 0.23 0.22 0.26 0.31 0.34 0.39 0.45 0.49 0.54 0.56 0.60 0.65 0.65 0.71 0.76 0.79 0.77 0.75 0.73 0.68 0.59 0.51 0.47 0.41 0.36 0.31
0.09 0.09 0.05 0.02 0.02 0.02 0.01 0.01 0.02 0.03 0.03 0.12 0.32 0.64 0.80 0.95 0.82 0.52 0.35 0.28 0.29 0.33 0.37 0.42 0.44 0.40 0.38 0.38 0.40 0.43 0.46 0.48 0.48 0.46 0.45 0.44 0.41 0.37 0.35 0.32 0.29 0.25 0.22 0.20
0.12 0.16 0.14 0.09 0.04 0.02 0.02 0.03 0.06 0.11 0.12 0.11 0.31 0.93 1.30 1.34 1.12 0.78 0.54 0.45 0.45 0.43 0.45 0.47 0.44 0.37 0.34 0.34 0.35 0.35 0.33 0.33 0.33 0.29 0.25 0.23 0.21 0.19 0.19 0.18 0.16 0.14 0.13 0.12
0.08 0.15 0.27 0.20 0.11 0.05 0.03 0.05 0.06 0.08 0.08 0.12 0.36 1.03 1.50 1.40 1.17 0.93 0.73 0.68 0.68 0.66 0.64 0.57 0.47 0.41 0.38 0.34 0.31 0.29 0.25 0.23 0.22 0.20 0.18 0.17 0.16 0.15 0.14 0.13 0.13 0.12 0.12 0.12
0.05 0.17 0.40 0.50 0.31 0.18 0.11 0.07 0.05 0.05 0.12 0.22 0.42 0.83 1.24 1.21 1.06 0.97 0.93 1.00 0.99 0.83 0.66 0.54 0.47 0.43 0.38 0.34 0.31 0.26 0.23 0.19 0.16 0.15 0.14 0.14 0.14 0.13 0.13 0.12 0.12 0.11 0.11 0.11
0.11 0.31 0.37 0.33 0.27 0.23 0.17 0.14 0.11 0.11 0.16 0.33 0.59 0.84 1.14 1.24 1.21 1.24 1.34 1.28 1.07 0.83 0.65 0.57 0.52 0.50 0.46 0.41 0.35 0.29 0.25 0.21 0.18 0.16 0.17 0.17 0.16 0.16 0.15 0.14 0.13 0.12 0.11 0.09
0.10 0.23 0.27 0.27 0.24 0.25 0.23 0.26 0.26 0.24 0.30 0.49 0.70 1.04 1.40 1.49 1.51 1.44 1.38 1.33 1.21 1.02 0.85 0.72 0.64 0.57 0.53 0.50 0.46 0.43 0.40 0.36 0.30 0.27 0.25 0.24 0.21 0.19 0.16 0.14 0.12 0.09 0.06 0.04
0.08 0.14 0.26 0.30 0.23 0.30 0.41 0.40 0.32 0.33 0.43 0.59 0.70 0.89 1.14 1.23 1.29 1.36 1.40 1.38 1.31 1.15 1.00 0.91 0.88 0.82 0.76 0.70 0.64 0.59 0.52 0.42 0.35 0.30 0.26 0.22 0.18 0.14 0.11 0.08 0.06 0.05 0.04 0.04
0.07 0.10 0.18 0.21 0.28 0.47 0.43 0.34 0.30 0.34 0.43 0.47 0.51 0.61 0.80 0.93 1.04 1.16 1.28 1.35 1.31 1.19 1.13 1.10 1.01 0.94 0.88 0.77 0.63 0.48 0.37 0.30 0.25 0.21 0.17 0.13 0.10 0.07 0.05 0.04 0.04 0.04 0.05 0.05
0.04 0.07 0.13 0.18 0.32 0.45 0.43 0.28 0.24 0.35 0.45 0.41 0.40 0.43 0.50 0.57 0.65 0.84 0.93 0.99 1.08 1.08 1.02 0.99 0.95 0.90 0.80 0.64 0.46 0.33 0.25 0.20 0.16 0.14 0.11 0.07 0.05 0.04 0.04 0.04 0.04 0.05 0.06 0.06
0.03 0.05 0.10 0.18 0.33 0.46 0.48 0.20 0.12 0.25 0.54 0.51 0.45 0.43 0.47 0.57 0.63 0.60 0.58 0.59 0.64 0.70 0.75 0.77 0.73 0.64 0.54 0.41 0.29 0.23 0.19 0.16 0.13 0.10 0.07 0.05 0.04 0.04 0.04 0.05 0.05 0.05 0.06 0.07
0.11 0.10 0.14 0.23 0.37 0.44 0.22 0.14 0.21 0.47 0.61 0.54 0.45 0.47 0.57 0.62 0.54 0.38 0.34 0.39 0.44 0.50 0.55 0.55 0.50 0.46 0.37 0.27 0.21 0.20 0.17 0.14 0.10 0.08 0.07 0.06 0.04 0.04 0.04 0.06 0.07 0.06 0.06 0.07
0.15 0.20 0.27 0.32 0.42 0.45 0.18 0.19 0.35 0.41 0.35 0.32 0.32 0.34 0.34 0.30 0.25 0.22 0.21 0.25 0.31 0.38 0.42 0.40 0.37 0.31 0.23 0.19 0.18 0.17 0.15 0.10 0.08 0.09 0.09 0.07 0.05 0.03 0.03 0.07 0.09 0.07 0.07 0.09
0.05 0.10 0.20 0.29 0.38 0.31 0.14 0.15 0.18 0.20 0.22 0.20 0.23 0.24 0.18 0.17 0.19 0.17 0.15 0.19 0.24 0.25 0.25 0.22 0.19 0.17 0.16 0.15 0.15 0.15 0.10 0.07 0.07 0.09 0.10 0.08 0.05 0.04 0.03 0.05 0.07 0.07 0.08 0.07
0.04 0.01 0.05 0.12 0.20 0.18 0.15 0.14 0.13 0.14 0.16 0.17 0.18 0.20 0.17 0.11 0.08 0.09 0.14 0.19 0.21 0.18 0.15 0.13 0.13 0.14 0.15 0.13 0.13 0.13 0.09 0.09 0.11 0.13 0.11 0.08 0.07 0.06 0.04 0.03 0.03 0.03 0.04 0.04
0.04 0.01 0.03 0.10 0.16 0.18 0.21 0.18 0.15 0.15 0.15 0.15 0.18 0.20 0.16 0.10 0.08 0.10 0.13 0.15 0.15 0.14 0.13 0.14 0.17 0.15 0.12 0.10 0.10 0.08 0.07 0.09 0.13 0.13 0.08 0.07 0.07 0.06 0.06 0.05 0.03 0.02 0.02 0.01
0.01 0.01 0.06 0.15 0.18 0.21 0.27 0.19 0.14 0.20 0.25 0.27 0.26 0.20 0.14 0.12 0.11 0.11 0.11 0.12 0.12 0.13 0.14 0.16 0.14 0.11 0.08 0.06 0.05 0.03 0.03 0.04 0.07 0.08 0.06 0.05 0.05 0.05 0.04 0.06 0.07 0.02 0.01 0.01